Location: Kaltenbach
(49.2000°N, 7.7500°E)
Time: 19:31:07
(UTC+00:00)

USA 267 - Pass Details

Date: 24 January 2020
Orbit: 1099 x 1108 km, 123.0° (Epoch: 10 February)

Event Time Altitude Azimuth Distance (km) Brightness Sun altitude
Exits shadow 20:17:39 37° 325° (NW) 1,650 4.4 -39.7°
Drops below altitude 10° 20:21:56 10° 295° (WNW) 2,964 6.2 -40.3°
Sets 20:24:31 0° 290° (WNW) 3,923 7.0 -40.7°
